This is the latest recevied weather packets stored in our database for station/object WB6ANP. If no packets are shown the sender has not sent any weather packets the latest 10 day(s).
| Time | Temp. | Humidity | Pressure | Rain* | Wind** | Luminosity | Snow |
|---|---|---|---|---|---|---|---|
| 1777947522 | 23.89° C | 67% | 1005.5 hPa | 0 mm | - | 0 W/m² | - |
| 1777947218 | 23.89° C | 66% | 1005.5 hPa | 0 mm | - | 0 W/m² | - |
| 1777946914 | 23.89° C | 66% | 1005.5 hPa | 0 mm | - | 0 W/m² | - |
| 1777946610 | 23.89° C | 66% | 1005.3 hPa | 0 mm | - | 0 W/m² | - |
| 1777946307 | 23.89° C | 66% | 1005.3 hPa | 0 mm | - | 0 W/m² | - |
| 1777946004 | 24.44° C | 66% | 1005.1 hPa | 0 mm | - | 0 W/m² | - |
| 1777945701 | 24.44° C | 65% | 1004.9 hPa | 0 mm | - | 0 W/m² | - |
| 1777945398 | 24.44° C | 65% | 1005.4 hPa | 0 mm | - | 0 W/m² | - |
| 1777945095 | 24.44° C | 65% | 1005.5 hPa | 0 mm | - | 0 W/m² | - |
| 1777944792 | 24.44° C | 65% | 1005.4 hPa | 0 mm | - | 0 W/m² | - |
| 1777944490 | 24.44° C | 65% | 1005.4 hPa | 0 mm | - | 0 W/m² | - |
| 1777944188 | 24.44° C | 65% | 1005.3 hPa | 0 mm | - | 1 W/m² | - |
| 1777943883 | 24.44° C | 64% | 1005.4 hPa | 0 mm | - | 1 W/m² | - |
| 1777943581 | 24.44° C | 64% | 1005.5 hPa | 0 mm | - | 3 W/m² | - |
| 1777943276 | 25° C | 64% | 1005.3 hPa | 0 mm | - | 5 W/m² | - |
| 1777942972 | 25° C | 63% | 1005.4 hPa | 0 mm | - | 8 W/m² | - |
| 1777942669 | 25° C | 63% | 1005.3 hPa | 0 mm | - | 11 W/m² | - |
| 1777942366 | 25° C | 63% | 1005.3 hPa | 0 mm | - | 17 W/m² | - |
| 1777942063 | 25° C | 63% | 1005.4 hPa | 0 mm | - | 24 W/m² | - |
| 1777941759 | 25° C | 62% | 1005.6 hPa | 0 mm | - | 31 W/m² | - |
| 1777941456 | 25.56° C | 62% | 1005.5 hPa | 0 mm | - | 39 W/m² | - |
| 1777941154 | 25.56° C | 61% | 1005.5 hPa | 0 mm | - | 43 W/m² | - |
| 1777940850 | 25.56° C | 61% | 1005.5 hPa | 0 mm | - | 46 W/m² | - |
| 1777940548 | 25.56° C | 62% | 1005.5 hPa | 0 mm | - | 53 W/m² | - |
| 1777940245 | 25.56° C | 61% | 1005.5 hPa | 0 mm | - | 57 W/m² | - |
* Rain latest hour (hover to see other rain measurements)
** Current wind speed in m/s (hover to see current wind gust speed)